Location: Arthez
(43.0833°N, 0.2500°W)
Time: 03:00:21
(UTC+00:00)

Cosmos 1697 Rocket - Pass Details

Date: 23 October 2021
Orbit: 834 x 842 km, 71.0° (Epoch: 29 November)

Event Time Altitude Azimuth Distance (km) Brightness Sun altitude
Rises 17:23:24 0° 227° (SW) 3,386 7.0 -4.0°
Reaches altitude 10° 17:26:01 10° 235° (SW) 2,454 6.4 -4.5°
Maximum altitude 17:31:14 38° 303° (WNW) 1,265 4.2 -5.4°
Drops below altitude 10° 17:36:29 10° 11° (N) 2,464 4.9 -6.4°
Sets 17:39:07 0° 19° (NNE) 3,401 5.6 -6.8°
